This demonstration page uses our WeatherBlox Daily Observations layout. Learn more.

Left ArrowRight Arrow

Hourly Observations for March 7, 2019

Temp ( °F °C ) Dew Point ( °F °C ) Humidity (%) Winds ( mph kmh ) Pressure ( in mb ) Visibility ( mi km ) Precip ( " mm )
6:30 am 06:30 Mostly Clear 25 -4 12 -11 59 59 WSW 5 7 30.42 1030 10 16 N/A
6:45 am 06:45 Mostly Clear 25 -4 12 -11 59 59 WSW 5 7 30.42 1030 10 16 N/A
7:45 am 07:45 Mostly Sunny 25 -4 16 -9 69 69 Calm 30.42 1030 10 16 N/A
8:45 am 08:45 Mostly Sunny 27 -3 12 -11 54 54 WSW 5 7 30.43 1031 10 16 N/A
9:45 am 09:45 Mostly Sunny 28 -2 12 -11 51 51 W 5 7 30.44 1031 10 16 N/A
10:45 am 10:45 Partly Cloudy 28 -2 12 -11 51 51 WSW 5 7 30.43 1031 10 16 N/A
11:45 am 11:45 Mostly Sunny 32 0 14 -10 47 47 Calm 30.42 1030 10 16 N/A
12:45 pm 12:45 Cloudy 32 0 14 -10 47 47 Calm 30.41 1030 10 16 N/A
1:45 pm 13:45 Cloudy 34 1 16 -9 48 48 Calm 30.40 1030 10 16 N/A
2:45 pm 14:45 Cloudy 36 2 14 -10 41 41 Calm 30.37 1028 10 16 N/A
3:45 pm 15:45 Cloudy 34 1 16 -9 48 48 Calm 30.36 1028 10 16 N/A
4:10 pm 16:10 Cloudy with Light Snow 32 0 19 -7 60 60 Calm 30.38 1029 4 6 N/A
4:20 pm 16:20 Cloudy with Light Snow 32 0 19 -7 60 60 Calm 30.37 1028 2 3 N/A
4:45 pm 16:45 Cloudy with Light Snow 30 -1 25 -4 80 80 Calm 30.37 1028 2 3 N/A
5:45 pm 17:45 Cloudy with Light Snow 28 -2 27 -3 93 93 S 6 9 30.37 1028 2 2 N/A
6:30 pm 18:30 Cloudy with Light Snow 28 -2 25 -4 86 86 Calm 30.36 1028 3 5 N/A
6:45 pm 18:45 Cloudy with Light Snow 28 -2 27 -3 93 93 Calm 30.36 1028 3 5 N/A
7:20 pm 19:20 Cloudy with Light Snow 28 -2 27 -3 93 93 S 6 9 30.36 1028 2 2 N/A
7:45 pm 19:45 Cloudy with Light Snow 28 -2 27 -3 93 93 Calm 30.36 1028 2 3 N/A
8:45 pm 20:45 Cloudy with Light Snow 28 -2 27 -3 93 93 Calm 30.34 1027 3 5 N/A
9:45 pm 21:45 Cloudy with Light Snow 28 -2 25 -4 86 86 Calm 30.34 1027 5 8 N/A

Powered by AerisWeather